Tracking 19192 objects as of 19-Jun-2018
HD Live streaming from Space Station
objects crossing your sky now

SL-3 R/B

Track SL-3 R/B now!
10-day predictions


NORAD ID: 8027
Int'l Code: 1975-064B
Perigee: 838.3 km
Apogee: 913.0 km
Inclination: 81.3 °
Period: 102.3 minutes
Semi major axis: 7246 km
RCS: 6.004 m2 (large)
Launch date: July 11, 1975
Source: Commonwealth of Independent States (former USSR) (CIS)
Launch site: PLESETSK MISSILE AND SPACE COMPLEX (PKMTR)

Note: This is a ROCKET BODY
aabbcc
Your satellite tracking list
Your tracking list is empty




NASA's NSSDC Master Catalog

Two Line Element Set (TLE):
1  8027U 75064B   18169.83572205 -.00000129 +00000-0 -82894-4 0  9995
2  8027 081.2998 062.5568 0051570 314.5032 045.1928 14.07332624203785
Source of the keplerian elements: AFSPC